Starlink 4683

operational
NORAD ID: 53712 Int'l Des: 2022-107 Owner: SPXS Country: US Constellation: starlink
LEOCIRCULAR

Über Starlink 4683

Beschreibung wird geladen...

Live-Position

3D-Globus wird geladen...

Nächste Überflüge

Höhenverlauf

Altitude vs Time

uPlot chart will show altitude changes over time

Zweizeiliger Elementsatz

1 53712U 22107N 25303.21708869 -.00000044 00000-0 15330-4 0 9999
2 53712 53.2160 114.3790 0001346 87.6440 272.4706 15.08841244174800
Epoch: 30. Okt. 2025 • Age: 22 hours

Aktueller Status

Höhe 559.1 km
Geschwindigkeit 7.58 km/s
Subsatellitenpunkt -52.87°S, 54.97°W
Startdatum 5. Sept. 2022
Alter 3.1 years
Typ internet

Technische Details

Klassifizierung Payload
Masse 305.00 kg
Trockenmasse 290.00 kg
Gesamtmasse 305.00 kg
Länge 0.20 m
Durchmesser 2.80 m
Spannweite 9.00 m
Form Box + pan
Hersteller SPXS
Bus-Typ Starlink
Phasenstatus In Orbit
Besitzer/Staat SPXS/US

Große Konstellationen

Loading constellations...